Location: Chmeln�
(49.6483°N, 14.9871°E)
Time: 06:21:19
(UTC+00:00)

CENTAUR R/B - Pass Details

Date: 18 September 2020
Orbit: 755 x 1433 km, 63.4° (Epoch: 02 October)

Event Time Altitude Azimuth Distance (km) Brightness Sun altitude
Rises 19:24:05 0° 316° (NW) 4,097 7.1 -22.0°
Reaches altitude 10° 19:26:42 10° 317° (NW) 3,215 6.2 -22.4°
Maximum altitude 19:34:41 85° 231° (SW) 1,370 3.1 -23.5°
Enters shadow 19:38:32 38° 145° (SE) 1,999 3.6 -24.0°
